This is the latest recevied weather packets stored in our database for station/object KN4CI-1. If no packets are shown the sender has not sent any weather packets the latest 10 day(s).
| Time | Temp. | Humidity | Pressure | Rain* | Wind** | Luminosity | Snow |
|---|---|---|---|---|---|---|---|
| 1777581694 | 20.56° C | 17% | 1014.6 hPa | 0 mm | 2.68 m/s, 56° | - | - |
| 1777581092 | 20.56° C | 17% | 1014.6 hPa | 0 mm | 3.13 m/s, 356° | - | - |
| 1777580789 | 20.56° C | 17% | 1014.6 hPa | 0 mm | 1.79 m/s, 10° | - | - |
| 1777580489 | 20° C | 17% | 1014.6 hPa | 0 mm | 2.24 m/s, 327° | - | - |
| 1777580187 | 20° C | 17% | 1014.6 hPa | 0 mm | 3.13 m/s, 343° | - | - |
| 1777579884 | 20° C | 17% | 1014.6 hPa | 0 mm | 2.24 m/s, 327° | - | - |
| 1777578670 | 20.56° C | 17% | 1015.6 hPa | 0 mm | 1.79 m/s, 351° | - | - |
| 1777578058 | 20.56° C | 17% | 1015.6 hPa | 0 mm | 1.34 m/s, 9° | - | - |
| 1777577453 | 20.56° C | 17% | 1015.6 hPa | 0 mm | 2.68 m/s, 12° | - | - |
| 1777577151 | 20.56° C | 17% | 1015.6 hPa | 0 mm | 1.79 m/s, 101° | - | - |
| 1777576851 | 20.56° C | 17% | 1015.6 hPa | 0 mm | 1.79 m/s, 356° | - | - |
| 1777575934 | 20.56° C | 17% | 1015.6 hPa | 0 mm | 1.79 m/s, 340° | - | - |
| 1777575634 | 20.56° C | 17% | 1015.6 hPa | 0 mm | 2.24 m/s, 49° | - | - |
| 1777575332 | 20.56° C | 17% | 1015.6 hPa | 0 mm | 2.24 m/s, 62° | - | - |
| 1777574733 | 20° C | 17% | 1015.6 hPa | 0 mm | 2.24 m/s, 351° | - | - |
| 1777574129 | 19.44° C | 17% | 1015.6 hPa | 0 mm | 3.13 m/s, 351° | - | - |
| 1777573829 | 20° C | 17% | 1015.6 hPa | 0 mm | 2.24 m/s, 337° | - | - |
| 1777573518 | 20° C | 17% | 1015.6 hPa | 0 mm | 2.68 m/s, 90° | - | - |
| 1777572610 | 19.44° C | 17% | 1015.6 hPa | 0 mm | 2.68 m/s, 97° | - | - |
| 1777572310 | 19.44° C | 17% | 1015.6 hPa | 0 mm | 2.68 m/s, 36° | - | - |
| 1777572060 | 19.44° C | 17% | 1015.6 hPa | 0 mm | 2.24 m/s, 42° | - | - |
| 1777572005 | 19.44° C | 17% | 1015.6 hPa | 0 mm | 2.24 m/s, 42° | - | - |
| 1777571701 | 19.44° C | 17% | 1015.6 hPa | 0 mm | 2.68 m/s, 1° | - | - |
| 1777571401 | 19.44° C | 17% | 1015.6 hPa | 0 mm | 0 m/s | - | - |
| 1777571102 | 19.44° C | 17% | 1015.6 hPa | 0 mm | 0 m/s | - | - |
* Rain latest hour (hover to see other rain measurements)
** Current wind speed in m/s (hover to see current wind gust speed)